This is the latest recevied weather packets stored in our database for station/object KB2AHZ. If no packets are shown the sender has not sent any weather packets the latest 10 day(s).
| Time | Temp. | Humidity | Pressure | Rain* | Wind** | Luminosity | Snow |
|---|---|---|---|---|---|---|---|
| 1777920831 | 25.56° C | 33% | 1014.2 hPa | 0 mm | - | 825 W/m² | - |
| 1777920527 | 25.56° C | 31% | 1014.3 hPa | 0 mm | - | 837 W/m² | - |
| 1777920223 | 25.56° C | 33% | 1014.2 hPa | 0 mm | - | 850 W/m² | - |
| 1777919919 | 25.56° C | 34% | 1014.2 hPa | 0 mm | - | 859 W/m² | - |
| 1777919617 | 25° C | 33% | 1014.3 hPa | 0 mm | - | 868 W/m² | - |
| 1777919314 | 25° C | 32% | 1014.5 hPa | 0 mm | - | 880 W/m² | - |
| 1777919012 | 25.56° C | 31% | 1014.5 hPa | 0 mm | - | 887 W/m² | - |
| 1777918708 | 25.56° C | 33% | 1014.5 hPa | 0 mm | - | 860 W/m² | - |
| 1777918406 | 25° C | 31% | 1014.3 hPa | 0 mm | - | 892 W/m² | - |
| 1777918104 | 25° C | 32% | 1014.5 hPa | 0 mm | - | 902 W/m² | - |
| 1777917802 | 25° C | 33% | 1014.5 hPa | 0 mm | - | 909 W/m² | - |
| 1777917500 | 25° C | 32% | 1014.6 hPa | 0 mm | - | 918 W/m² | - |
| 1777917197 | 24.44° C | 35% | 1014.7 hPa | 0 mm | - | 920 W/m² | - |
| 1777916895 | 25° C | 33% | 1015 hPa | 0 mm | - | 925 W/m² | - |
| 1777916592 | 24.44° C | 35% | 1014.7 hPa | 0 mm | - | 926 W/m² | - |
| 1777916289 | 23.89° C | 33% | 1014.8 hPa | 0 mm | - | 928 W/m² | - |
| 1777915986 | 24.44° C | 32% | 1015.1 hPa | 0 mm | - | 932 W/m² | - |
| 1777915683 | 24.44° C | 33% | 1015.1 hPa | 0 mm | - | 934 W/m² | - |
| 1777915379 | 24.44° C | 31% | 1015.3 hPa | 0 mm | - | 939 W/m² | - |
| 1777915075 | 24.44° C | 33% | 1015.5 hPa | 0 mm | - | 943 W/m² | - |
| 1777914773 | 23.89° C | 30% | 1015.9 hPa | 0 mm | - | 947 W/m² | - |
| 1777914469 | 23.33° C | 32% | 1015.8 hPa | 0 mm | - | 972 W/m² | - |
| 1777914167 | 23.89° C | 32% | 1015.8 hPa | 0 mm | - | 840 W/m² | - |
| 1777913863 | 23.33° C | 35% | 1015.9 hPa | 0 mm | - | 654 W/m² | - |
| 1777913559 | 22.78° C | 35% | 1015.7 hPa | 0 mm | - | 971 W/m² | - |
* Rain latest hour (hover to see other rain measurements)
** Current wind speed in m/s (hover to see current wind gust speed)